{"data":{"norad_id":31127,"epoch":"2026-09-19T21:58:16.432608Z","epoch_age_seconds":68820,"freshness":"FRESH","line1":"1 31127U 07012L   26262.91546797  .00000387  00000+0  80785-4 0  9999","line2":"2 31127  98.4108 237.4754 0062571 323.5325  36.1623 14.64598710 35152","mean_motion":14.6459871,"eccentricity":0.0062571,"inclination_deg":98.4108,"raan_deg":237.4754,"arg_perigee_deg":323.5325,"mean_anomaly_deg":36.1623,"bstar":8.0785e-5,"rev_number":3515,"period_min":98.320447107317,"perigee_km":634.21080615893,"apogee_km":722.51727145879,"semimajor_km":7056.5010388089,"source":"CELESTRAK","updated_at":"2026-09-20T09:00:13.653077Z"}}